STARLINK-31668, 59580

Orbit data source: Space-Track

STARLINK-31668, 59580 is a payload satellite owned by SpaceX/Seattle (US) in LEO that was launched on Tue, 23 Apr 2024 UTC via an FALCON 9 launch vehicle from the Air Force Eastern Test Range (AFETR). Payload-class satellites include a variety of spacecraft equipped with specific instruments for various scientific and technological missions. These include communications satellites like Starlink; space stations such as the ISS; scientific satellites like the Hubble; Earth observation satellites from companies like Planet Labs, Umbra, and HawkEye 360; GPS; miniature CubeSats for education and research; and military/defense satellites.

Loading next visibility...
Identifier
59580, 2024-076S
Orbit
LEO
Country
Flag of USUS
Related business
Manufacturer
SpaceX/Seattle
Mission
Operational Commercial Communications
Bus & Motor
STARLINK V2M, Unknown motor
Mass
730 kg wet, ~700 kg dry
Launch date (UTC)
2024-04-23 (2 years ago)
Launch vehicle
FALCON 9
Launch site
Air Force Eastern Test Range (AFETR)
Object type
Payload
Rocket body
Debris
Shape & HBR
Box + 2 Pan, 17.7 m
Radar Cross Section
33.884 m², Large (>1 m²)

Expand to show TLE details & history
Last TLE update: 11 hours ago

TLE from 11 hours ago
0 STARLINK-31668
1 59580U 24076S   26035.77162140 -.00000164  00000-0  35644-5 0  9999
2 59580  43.0006 194.4424 0001278 266.6527  93.4178 15.27563622101476
Epoch: 2026-02-04T18:31Z
TLE epoch observation values (Epoch: 2026-02-04T18:31:08.088Z)
Latitude
-0.00007°
Longitude
141.72521°
Altitude
482.926 km
Speed
7.626 km/s
True Right ascension
12h 57m 46s
True Declination
0° 00' 00"
Sunlit
Object was in full shadow at epoch
Visualization orbit readout
Latitude
Unknown
Longitude
Unknown
Altitude
Unknown
Speed
Unknown
Apparent Right ascension
Unknown
Apparent Declination
Unknown
Sunlit
N/A
Visualization observer readout
Local Sidereal Time
07:15:38
Azimuth
Unknown
Elevation
Unknown
Doppler factor
Unknown
Orbital elements
Apogee altitude
485.92 km
Perigee altitude
484.166 km
Semi-major axis
6,863.18 km
Eccentricity
0.00013
Inclination
43.0006°
RAAN
194.4424°
Arg. of periapsis
266.6527°
True anomaly
93.43242°
Mean anomaly
93.4178°
Eccentric anomaly
93.42511°
Mean motion
3.81729 °/min
Orbital period
94.31 mins
BSTAR
0.0000035644
Loading maneuver chart data...
Computing Atmospheric mass density...
Loading historical data...
Loading historical data...
Loading historical data...
Loading historical data...
Loading historical data...
Loading historical data...
Loading historical data...

Documentation

Showing up to 5 results
|